Tracking 18840 objects as of 18-November-2017
HD Live streaming from Space Station
objects crossing your sky now

OV1-2

Track OV1-2 now!
10-day predictions
OV1-2 is classified as:


NORAD ID: 1613
Int'l Code: 1965-078A
Perigee: 406.8 km
Apogee: 2,308.7 km
Inclination: 144.2 °
Period: 112.7 minutes
Semi major axis: 7728 km
RCS: 0.5041 m2 (medium)
Launch date: October 5, 1965
Source: United States (US)
Launch site: AIR FORCE WESTERN TEST RANGE (AFWTR)
aabbcc
Your satellite tracking list
Your tracking list is empty




NASA's NSSDC Master Catalog

Two Line Element Set (TLE):
1  1613U 65078A   17321.56901575 +.00001503 +00000-0 +12154-3 0  9994
2  1613 144.2327 194.4058 1230395 024.8004 340.7204 12.77738377311667
Source of the keplerian elements: AFSPC